• In Latvia
  • List of Countries
  • For 7 days
  • Water Temperature
  • Satellite Maps
  • Weather Map
  • Weather Widgets
  • user-avatar
    Login

    Hourly Weather Naftalan

    Today, 24 July, Monday

    Time Temperature Precipitation Wind Pressure Humidity
    00:00 +31°C° 0 mm 8 mps 758 mmHg 55%
    01:00 +29°C° 0 mm 8 mps 758 mmHg 58%
    02:00 +29°C° 0 mm 8 mps 758 mmHg 62%
    03:00 +28°C° 0 mm 8 mps 758 mmHg 64%
    04:00 +29°C° 0 mm 8 mps 758 mmHg 64%
    05:00 +29°C° 0 mm 8 mps 759 mmHg 63%
    06:00 +29°C° 0 mm 8 mps 759 mmHg 63%
    07:00 +31°C° 0 mm 8 mps 759 mmHg 58%
    08:00 +32°C° 0 mm 8 mps 759 mmHg 53%
    09:00 +34°C° 0 mm 8 mps 759 mmHg 48%
    10:00 +34°C° 0 mm 8 mps 759 mmHg 44%
    11:00 +35°C° 0 mm 8 mps 759 mmHg 41%
    12:00 +37°C° 0 mm 8 mps 758 mmHg 37%
    13:00 +37°C° 0 mm 8 mps 758 mmHg 37%
    14:00 +37°C° 0 mm 8 mps 758 mmHg 37%
    15:00 +37°C° 0 mm 8 mps 758 mmHg 37%
    16:00 +35°C° 0 mm 8 mps 758 mmHg 40%
    17:00 +33°C° 0 mm 8 mps 758 mmHg 43%
    18:00 +32°C° 0 mm 8 mps 757 mmHg 46%
    19:00 +30°C° 0 mm 7 mps 758 mmHg 51%
    20:00 +29°C° 0 mm 6 mps 758 mmHg 56%
    21:00 +28°C° 0 mm 5 mps 758 mmHg 60%
    22:00 +28°C° 0 mm 5 mps 758 mmHg 62%
    23:00 +27°C° 0 mm 5 mps 758 mmHg 64%

    Tomorrow, 25 July, Tuesday

    Time Temperature Precipitation Wind Pressure Humidity
    00:00 +27°C° 0 mm 5 mps 758 mmHg 66%
    01:00 +27°C° 0 mm 5 mps 758 mmHg 67%
    02:00 +27°C° 0 mm 4 mps 757 mmHg 68%
    03:00 +26°C° 0 mm 4 mps 757 mmHg 68%
    04:00 +27°C° 0 mm 4 mps 757 mmHg 66%
    05:00 +27°C° 0 mm 4 mps 757 mmHg 64%
    06:00 +28°C° 0 mm 3 mps 757 mmHg 62%
    07:00 +29°C° 0 mm 3 mps 757 mmHg 56%
    08:00 +32°C° 0 mm 4 mps 757 mmHg 49%
    09:00 +33°C° 0 mm 4 mps 757 mmHg 43%
    10:00 +34°C° 0 mm 4 mps 757 mmHg 39%
    11:00 +36°C° 0 mm 4 mps 756 mmHg 34%
    12:00 +37°C° 0 mm 4 mps 756 mmHg 30%
    13:00 +38°C° 0 mm 4 mps 755 mmHg 29%
    14:00 +39°C° 0 mm 5 mps 755 mmHg 29%
    15:00 +39°C° 0 mm 5 mps 755 mmHg 28%
    16:00 +37°C° 0 mm 5 mps 755 mmHg 32%
    17:00 +36°C° 0 mm 5 mps 755 mmHg 37%
    18:00 +34°C° 0 mm 4 mps 755 mmHg 41%
    19:00 +33°C° 0 mm 4 mps 755 mmHg 46%
    20:00 +30°C° 0 mm 3 mps 755 mmHg 51%
    21:00 +29°C° 0 mm 3 mps 756 mmHg 57%
    22:00 +29°C° 0 mm 3 mps 756 mmHg 58%
    23:00 +28°C° 0 mm 3 mps 756 mmHg 58%

    Day after tomorrow, 26 July, Wednesday

    Time Temperature Precipitation Wind Pressure Humidity
    00:00 +28°C° 0 mm 2 mps 756 mmHg 59%
    01:00 +28°C° 0 mm 2 mps 756 mmHg 59%
    02:00 +27°C° 0 mm 2 mps 756 mmHg 59%
    03:00 +27°C° 0 mm 2 mps 755 mmHg 59%
    04:00 +27°C° 0 mm 2 mps 756 mmHg 56%
    05:00 +28°C° 0 mm 3 mps 756 mmHg 54%
    06:00 +29°C° 0 mm 3 mps 756 mmHg 51%
    07:00 +30°C° 0 mm 2 mps 756 mmHg 46%
    08:00 +32°C° 0 mm 2 mps 756 mmHg 41%
    09:00 +35°C° 0 mm 2 mps 756 mmHg 36%
    10:00 +36°C° 0 mm 2 mps 756 mmHg 32%
    11:00 +38°C° 0 mm 3 mps 756 mmHg 29%
    12:00 +39°C° 0 mm 3 mps 756 mmHg 26%
    13:00 +40°C° 0 mm 4 mps 756 mmHg 26%
    14:00 +40°C° 0 mm 4 mps 755 mmHg 26%
    15:00 +40°C° 0 mm 5 mps 755 mmHg 27%
    16:00 +39°C° 0 mm 5 mps 755 mmHg 29%
    17:00 +37°C° 0 mm 4 mps 755 mmHg 32%
    18:00 +35°C° 0 mm 4 mps 756 mmHg 34%
    19:00 +34°C° 0 mm 3 mps 756 mmHg 39%
    20:00 +31°C° 0 mm 3 mps 757 mmHg 43%
    21:00 +30°C° 0 mm 2 mps 757 mmHg 47%
    22:00 +29°C° 0 mm 2 mps 757 mmHg 48%
    23:00 +29°C° 0 mm 1 mps 757 mmHg 48%

    27 July, Thursday

    Time Temperature Precipitation Wind Pressure Humidity
    00:00 +29°C° 0 mm 1 mps 757 mmHg 49%
    01:00 +28°C° 0 mm 1 mps 757 mmHg 49%
    02:00 +28°C° 0 mm 1 mps 757 mmHg 49%
    03:00 +28°C° 0 mm 1 mps 757 mmHg 49%
    04:00 +28°C° 0 mm 2 mps 757 mmHg 46%
    05:00 +29°C° 0 mm 2 mps 757 mmHg 44%
    06:00 +30°C° 0 mm 2 mps 758 mmHg 42%
    07:00 +32°C° 0 mm 2 mps 758 mmHg 37%
    08:00 +35°C° 0 mm 2 mps 758 mmHg 31%
    09:00 +37°C° 0 mm 2 mps 758 mmHg 26%
    10:00 +38°C° 0 mm 2 mps 758 mmHg 24%
    11:00 +40°C° 0 mm 2 mps 757 mmHg 22%
    12:00 +42°C° 0 mm 3 mps 757 mmHg 20%
    13:00 +42°C° 0 mm 3 mps 757 mmHg 19%
    14:00 +43°C° 0 mm 4 mps 756 mmHg 19%
    15:00 +43°C° 0 mm 5 mps 756 mmHg 19%
    16:00 +42°C° 0 mm 5 mps 756 mmHg 20%
    17:00 +40°C° 0 mm 5 mps 756 mmHg 22%
    18:00 +37°C° 0 mm 5 mps 756 mmHg 24%
    19:00 +36°C° 0 mm 4 mps 757 mmHg 29%
    20:00 +34°C° 0 mm 4 mps 757 mmHg 34%
    21:00 +31°C° 0 mm 3 mps 758 mmHg 39%
    22:00 +31°C° 0 mm 3 mps 758 mmHg 41%
    23:00 +30°C° 0 mm 3 mps 758 mmHg 44%

    28 July, Friday

    Time Temperature Precipitation Wind Pressure Humidity
    00:00 +30°C° 0 mm 2 mps 757 mmHg 46%
    01:00 +29°C° 0 mm 2 mps 757 mmHg 48%
    02:00 +29°C° 0 mm 2 mps 757 mmHg 49%
    03:00 +28°C° 0 mm 1 mps 757 mmHg 50%
    04:00 +29°C° 0 mm 1 mps 757 mmHg 49%
    05:00 +30°C° 0 mm 1 mps 758 mmHg 47%
    06:00 +31°C° 0 mm 1 mps 758 mmHg 45%
    07:00 +33°C° 0 mm 1 mps 758 mmHg 40%
    08:00 +36°C° 0 mm 2 mps 758 mmHg 34%
    09:00 +38°C° 0 mm 2 mps 758 mmHg 28%
    10:00 +39°C° 0 mm 3 mps 757 mmHg 26%
    11:00 +40°C° 0 mm 3 mps 757 mmHg 24%
    12:00 +42°C° 0 mm 4 mps 757 mmHg 23%
    13:00 +42°C° 0 mm 4 mps 756 mmHg 23%
    14:00 +42°C° 0 mm 5 mps 756 mmHg 24%
    15:00 +42°C° 0 mm 5 mps 756 mmHg 25%
    16:00 +40°C° 0 mm 5 mps 756 mmHg 29%
    17:00 +39°C° 0 mm 5 mps 756 mmHg 33%
    18:00 +36°C° 0 mm 5 mps 756 mmHg 37%
    19:00 +35°C° 0 mm 4 mps 756 mmHg 44%
    20:00 +33°C° 0 mm 4 mps 756 mmHg 52%
    21:00 +32°C° 0 mm 4 mps 757 mmHg 59%
    22:00 +30°C° 0 mm 3 mps 757 mmHg 61%
    23:00 +30°C° 0 mm 3 mps 757 mmHg 63%

    29 July, Saturday

    Time Temperature Precipitation Wind Pressure Humidity
    00:00 +29°C° 0 mm 2 mps 757 mmHg 65%
    01:00 +29°C° 0 mm 2 mps 757 mmHg 66%
    02:00 +29°C° 0 mm 1 mps 757 mmHg 66%
    03:00 +29°C° 0 mm 1 mps 757 mmHg 67%
    04:00 +29°C° 0 mm 1 mps 757 mmHg 64%
    05:00 +30°C° 0 mm 1 mps 757 mmHg 61%
    06:00 +31°C° 0 mm 1 mps 758 mmHg 58%
    07:00 +32°C° 0 mm 1 mps 758 mmHg 52%
    08:00 +34°C° 0 mm 1 mps 758 mmHg 45%
    09:00 +36°C° 0 mm 1 mps 758 mmHg 39%
    10:00 +39°C° 0 mm 2 mps 758 mmHg 35%
    11:00 +41°C° 0 mm 2 mps 757 mmHg 31%
    12:00 +43°C° 0 mm 3 mps 757 mmHg 28%
    13:00 +43°C° 0 mm 3 mps 757 mmHg 27%
    14:00 +44°C° 0 mm 4 mps 756 mmHg 26%
    15:00 +45°C° 0 mm 5 mps 756 mmHg 26%
    16:00 +42°C° 0 mm 5 mps 756 mmHg 29%
    17:00 +41°C° 0 mm 5 mps 756 mmHg 31%
    18:00 +39°C° 0 mm 5 mps 756 mmHg 34%
    19:00 +36°C° 0 mm 4 mps 756 mmHg 41%
    20:00 +34°C° 0 mm 3 mps 757 mmHg 48%
    21:00 +33°C° 0 mm 3 mps 757 mmHg 55%
    22:00 +31°C° 0 mm 3 mps 757 mmHg 56%
    23:00 +31°C° 0 mm 2 mps 757 mmHg 57%
    Show more